TimeCST,TemperatureF,Dew PointF,Humidity,Sea Level PressureIn,VisibilityMPH,Wind Direction,Wind SpeedMPH,Gust SpeedMPH,PrecipitationIn,Events,Conditions,WindDirDegrees,DateUTC
12:53 AM,54.0,51.1,90,30.17,10.0,East,3.5,-,N/A,,Overcast,100,2012-12-01 06:53:00
1:53 AM,54.0,50.0,86,30.17,10.0,ESE,5.8,-,N/A,,Overcast,120,2012-12-01 07:53:00
2:53 AM,57.9,51.1,78,30.17,10.0,South,6.9,-,N/A,,Overcast,180,2012-12-01 08:53:00
3:53 AM,57.9,51.1,78,30.17,10.0,South,6.9,-,N/A,,Overcast,190,2012-12-01 09:53:00
4:53 AM,59.0,51.1,75,30.16,10.0,South,9.2,-,N/A,,Overcast,180,2012-12-01 10:53:00
5:53 AM,57.9,52.0,81,30.17,10.0,South,5.8,-,N/A,,Overcast,170,2012-12-01 11:53:00
6:53 AM,57.0,52.0,83,30.18,10.0,South,4.6,-,N/A,,Overcast,170,2012-12-01 12:53:00
7:53 AM,59.0,52.0,78,30.19,10.0,South,8.1,-,N/A,,Overcast,170,2012-12-01 13:53:00
8:53 AM,59.0,53.1,81,30.19,10.0,SSE,6.9,-,0.00,Rain,Light Rain,160,2012-12-01 14:53:00
9:53 AM,63.0,54.0,72,30.19,10.0,South,12.7,-,0.00,,Mostly Cloudy,180,2012-12-01 15:53:00
11:53 AM,70.0,55.0,59,30.13,10.0,South,13.8,-,N/A,,Clear,170,2012-12-01 17:53:00
12:53 PM,72.0,55.9,57,30.11,10.0,South,12.7,-,N/A,,Clear,180,2012-12-01 18:53:00
1:53 PM,73.9,57.9,57,30.08,10.0,South,15.0,20.7,N/A,,Clear,180,2012-12-01 19:53:00
2:53 PM,73.4,57.2,57,30.07,10.0,SSE,12.7,-,N/A,,Mostly Cloudy,160,2012-12-01 20:53:00
3:53 PM,73.0,57.0,57,30.06,10.0,SSE,13.8,-,N/A,,Scattered Clouds,150,2012-12-01 21:53:00
4:53 PM,69.8,57.2,64,30.07,10.0,SSE,10.4,-,N/A,,Partly Cloudy,150,2012-12-01 22:53:00
5:53 PM,66.9,57.0,70,30.07,10.0,SSE,11.5,-,N/A,,Clear,160,2012-12-01 23:53:00
6:53 PM,64.9,55.9,73,30.08,10.0,SSE,12.7,-,N/A,,Clear,160,2012-12-02 00:53:00
7:53 PM,63.0,55.0,75,30.07,10.0,SSE,10.4,-,N/A,,Clear,160,2012-12-02 01:53:00
8:53 PM,63.0,55.0,75,30.07,10.0,SSE,10.4,-,N/A,,Clear,160,2012-12-02 02:53:00
9:53 PM,64.0,55.0,73,30.09,10.0,South,13.8,-,N/A,,Clear,180,2012-12-02 03:53:00
10:53 PM,64.0,55.0,73,30.11,10.0,South,9.2,-,N/A,,Mostly Cloudy,190,2012-12-02 04:53:00
11:53 PM,63.0,55.9,78,30.12,10.0,South,11.5,-,N/A,,Mostly Cloudy,180,2012-12-02 05:53:00